User: anonymous   Login
Location: Milton Keynes
(52.0316°N, 0.7531°W)
Time: 19:56:27
(UTC+00:00)
Language:

Envisat - Orbit

View from above orbital plane
View from above orbital plane
View from above satellite
View from above satellite

Ground track
Ground track

The orbit data is extracted from the following two-line orbital elements,

1 27386U 02009A   19048.53326522  .00000006  00000-0  15449-4 0  9990
2 27386  98.1609  75.6848 0001175  96.4527  19.0487 14.37941489888784
Epoch (UTC): 17 February 2019 12:47:54
Eccentricity: 0.0001175
inclination: 98.1609°
perigee height: 764 km
apogee height: 766 km
right ascension of ascending node: 75.6848°
argument of perigee: 96.4527°
revolutions per day: 14.37941489
mean anomaly at epoch: 19.0487°
orbit number at epoch: 88878

The dashed part of the orbit path shows where the satellite is in the earth's shadow,  

DLR